Location: Newark
(27.9881°N, 86.9253°E)
Time: 06:41:23
(UTC+00:00)

X-37B - Visible Passes

Search period start: 23 September 2020 00:00
Search period end: 03 October 2020 00:00
Orbit: 386 x 387 km, 45.0° (Epoch: 18 September)

Date Brightness Start Highest point End Pass type
(mag) Time Alt. Az. Time Alt. Az. Time Alt. Az.
23 Sep 1.7 23:24:11 10° NW 23:27:13 43° NE 23:30:16 10° ESE visible
24 Sep 2.8 22:27:34 19° N 22:28:33 21° NNE 22:31:04 10° E visible
25 Sep 0.5 23:04:41 21° WNW 23:06:41 77° SW 23:09:50 10° SE visible
26 Sep 3.0 22:09:38 24° E 22:09:38 24° E 22:11:08 10° ESE visible
27 Sep 2.1 22:47:02 24° S 22:47:02 24° S 22:48:51 10° SSE visible
28 Sep 3.0 13:37:20 10° SSW 13:38:06 16° SSW 13:38:06 16° SSW visible
29 Sep 2.3 12:39:39 10° S 12:41:54 18° SE 12:43:05 15° ESE visible
30 Sep 0.6 13:16:35 10° SW 13:19:44 74° NW 13:20:14 57° NNE visible
01 Oct 1.1 12:18:12 10° SSW 12:21:13 42° SE 12:24:14 10° ENE visible
01 Oct 3.5 13:55:45 10° WNW 13:57:13 16° NW 13:57:13 16° NW visible
02 Oct 2.2 12:56:21 10° W 12:59:13 31° NNW 13:01:43 12° NNE visible
